Pawtucket, RI

2:34 PM EDT on September 23, 2017 (GMT -0400)
North Central State

Weather History for KSFZ - February, 2014

Change the Weather History Date:

Saturday, February 8, 2014

  Actual Average Record
Temperature  
Mean Temperature 20 °F -  
Max Temperature 28 °F 35 °F 52 °F (2017)
Min Temperature 12 °F 20 °F 8 °F (2000)
Degree Days  
Heating Degree Days 45    
Moisture  
Dew Point 2 °F    
Average Humidity 45    
Maximum Humidity 79    
Minimum Humidity 29    
Precipitation  
Precipitation 0.00 in - - ()
Sea Level Pressure  
Sea Level Pressure 30.20 in    
Wind  
Wind Speed 5 mph (West)    
Max Wind Speed 12 mph    
Max Gust Speed -    
Visibility 10 miles    
Events      
Averages and records for this station are not official NWS values.
T = Trace of Precipitation, MM = Missing Value Source: NWS Daily Summary

Daily Weather History Graph

Daily Weather History Graph

Search for Another Location

Airport or City:

Trip Planner

Search our weather history database for the weather conditions in past years. The results will help you decide how hot, cold, wet, or windy it might be!

Date:

Astronomy

Feb. 08, 2014 Rise Set
Actual Time 6:50 AM EST 5:10 PM EST
Civil Twilight 6:21 AM EST 5:39 PM EST
Nautical Twilight 5:48 AM EST 6:12 PM EST
Astronomical Twilight 5:16 AM EST 6:44 PM EST
Moon 12:00 PM EST (2/8) 2:01 AM EST (2/8)
Length of Visible Light 11h 17m
Length of Day
10h 19m
Waxing Gibbous, 68% of the Moon is Illuminated
Feb 8
Waxing Gibbous
Feb 14
Full
Feb 22
Last Quarter
Mar 1
New
Mar 8
First Quarter

Hourly Weather History & Observations

Time (EST) Temp. Windchill Dew Point Humidity Pressure Visibility Wind Dir Wind Speed Gust Speed Precip Events Conditions
12:15 AM 15.8 °F 10.2 °F 10.4 °F 79% 30.20 in 10.0 mi West 3.5 mph - N/A   Clear
12:35 AM 15.8 °F 7.2 °F 8.6 °F 73% 30.20 in 10.0 mi WSW 5.8 mph - N/A   Clear
12:55 AM 15.8 °F 8.6 °F 8.6 °F 73% 30.20 in 10.0 mi West 4.6 mph - N/A   Clear
1:15 AM 15.8 °F 7.2 °F 8.6 °F 73% 30.20 in 10.0 mi West 5.8 mph - N/A   Clear
1:35 AM 17.6 °F 10.7 °F 10.4 °F 73% 30.20 in 10.0 mi West 4.6 mph - N/A   Clear
1:55 AM 15.8 °F - 8.6 °F 73% 30.21 in 10.0 mi Calm Calm - N/A   Clear
2:15 AM 15.8 °F 8.6 °F 6.8 °F 68% 30.21 in 10.0 mi West 4.6 mph - N/A   Clear
2:35 AM 15.8 °F 7.2 °F 6.8 °F 68% 30.22 in 10.0 mi West 5.8 mph - N/A   Clear
2:55 AM 15.8 °F 8.6 °F 6.8 °F 68% 30.22 in 10.0 mi WSW 4.6 mph - N/A   Clear
3:15 AM 15.8 °F 7.2 °F 6.8 °F 68% 30.22 in 10.0 mi West 5.8 mph - N/A   Clear
3:35 AM 15.8 °F 5.1 °F 6.8 °F 68% 30.23 in 10.0 mi West 8.1 mph - N/A   Clear
3:55 AM 15.8 °F 5.1 °F 3.2 °F 58% 30.24 in 10.0 mi West 8.1 mph - N/A   Clear
4:15 AM 15.8 °F 6.1 °F 1.4 °F 53% 30.24 in 10.0 mi West 6.9 mph - N/A   Clear
4:35 AM 15.8 °F 6.1 °F 1.4 °F 53% 30.24 in 10.0 mi West 6.9 mph - N/A   Clear
4:55 AM 15.8 °F 6.1 °F 1.4 °F 53% 30.24 in 10.0 mi West 6.9 mph - N/A   Clear
5:15 AM 15.8 °F 6.1 °F -0.4 °F 49% 30.25 in 10.0 mi West 6.9 mph - N/A   Clear
5:35 AM 14.0 °F 5.1 °F -0.4 °F 53% 30.25 in 10.0 mi West 5.8 mph - N/A   Clear
5:55 AM 12.2 °F 4.3 °F -0.4 °F 57% 30.26 in 10.0 mi West 4.6 mph - N/A   Clear
6:15 AM 12.2 °F 4.3 °F -2.2 °F 53% 30.26 in 10.0 mi West 4.6 mph - N/A   Clear
6:35 AM 12.2 °F 2.9 °F -2.2 °F 53% 30.26 in 10.0 mi West 5.8 mph - N/A   Clear
6:55 AM 12.2 °F 4.3 °F -2.2 °F 53% 30.26 in 10.0 mi West 4.6 mph - N/A   Clear
7:15 AM 12.2 °F 4.3 °F -2.2 °F 53% 30.27 in 10.0 mi West 4.6 mph - N/A   Clear
7:35 AM 12.2 °F 6.1 °F -0.4 °F 57% 30.27 in 10.0 mi West 3.5 mph - N/A   Clear
7:55 AM 14.0 °F 6.5 °F -0.4 °F 53% 30.27 in 10.0 mi WNW 4.6 mph - N/A   Clear
8:15 AM 15.8 °F 6.1 °F -0.4 °F 49% 30.28 in 10.0 mi WNW 6.9 mph - N/A   Clear
8:35 AM 15.8 °F 2.7 °F -0.4 °F 49% 30.28 in 10.0 mi NW 11.5 mph - N/A   Clear
8:55 AM 17.6 °F 7.3 °F -2.2 °F 42% 30.28 in 10.0 mi WNW 8.1 mph - N/A   Clear
9:15 AM 17.6 °F 7.3 °F -0.4 °F 45% 30.28 in 10.0 mi West 8.1 mph - N/A   Clear
9:35 AM 19.4 °F 10.4 °F -0.4 °F 42% 30.28 in 10.0 mi West 6.9 mph - N/A   Clear
9:55 AM 19.4 °F 8.6 °F -0.4 °F 42% 30.27 in 10.0 mi NW 9.2 mph - N/A   Clear
10:15 AM 21.2 °F 11.7 °F -0.4 °F 39% 30.27 in 10.0 mi WNW 8.1 mph - N/A   Clear
10:35 AM 21.2 °F 14.9 °F -0.4 °F 39% 30.27 in 10.0 mi NW 4.6 mph - N/A   Clear
10:55 AM 24.8 °F 15.3 °F 1.4 °F 36% 30.26 in 10.0 mi NW 9.2 mph - N/A   Clear
11:15 AM 24.8 °F 16.1 °F -0.4 °F 34% 30.25 in 10.0 mi West 8.1 mph - N/A   Clear
11:35 AM 24.8 °F 14.0 °F -0.4 °F 34% 30.24 in 10.0 mi WNW 11.5 mph - N/A   Clear
11:55 AM 26.6 °F 17.5 °F -0.4 °F 31% 30.23 in 10.0 mi WNW 9.2 mph - N/A   Clear
12:15 PM 26.6 °F 19.1 °F 1.4 °F 34% 30.20 in 10.0 mi West 6.9 mph - N/A   Clear
12:35 PM 26.6 °F 21.2 °F -0.4 °F 31% 30.18 in 10.0 mi WSW 4.6 mph - N/A   Clear
12:55 PM 28.4 °F 22.2 °F -0.4 °F 29% 30.18 in 10.0 mi WSW 5.8 mph - N/A   Clear
1:15 PM 26.6 °F 20.0 °F -0.4 °F 31% 30.18 in 10.0 mi West 5.8 mph - N/A   Clear
1:35 PM 28.4 °F 24.6 °F -0.4 °F 29% 30.18 in 10.0 mi West 3.5 mph - N/A   Clear
1:55 PM 28.4 °F 23.3 °F 1.4 °F 31% 30.17 in 10.0 mi WSW 4.6 mph - N/A   Clear
2:15 PM 28.4 °F 21.2 °F -0.4 °F 29% 30.17 in 10.0 mi WNW 6.9 mph - N/A   Clear
2:35 PM 28.4 °F 22.2 °F -0.4 °F 29% 30.16 in 10.0 mi West 5.8 mph - N/A   Clear
2:55 PM 28.4 °F - -0.4 °F 29% 30.17 in 10.0 mi Calm Calm - N/A   Clear
3:15 PM 28.4 °F - -0.4 °F 29% 30.15 in 10.0 mi Calm Calm - N/A   Clear
3:35 PM 28.4 °F - 1.4 °F 31% 30.17 in 10.0 mi Calm Calm - N/A   Partly Cloudy
3:55 PM 28.4 °F 24.6 °F -0.4 °F 29% 30.18 in 10.0 mi WSW 3.5 mph - N/A   Partly Cloudy
4:15 PM 28.4 °F - -0.4 °F 29% 30.19 in 10.0 mi Calm Calm - N/A   Clear
4:35 PM 28.4 °F 24.6 °F -0.4 °F 29% 30.18 in 10.0 mi WSW 3.5 mph - N/A   Clear
4:55 PM 28.4 °F 22.2 °F -0.4 °F 29% 30.18 in 10.0 mi SW 5.8 mph - N/A   Partly Cloudy
5:15 PM 26.6 °F 20.0 °F -0.4 °F 31% 30.18 in 10.0 mi SW 5.8 mph - N/A   Partly Cloudy
5:35 PM 26.6 °F 20.0 °F 1.4 °F 34% 30.18 in 10.0 mi WSW 5.8 mph - N/A   Clear
5:55 PM 26.6 °F 22.6 °F 1.4 °F 34% 30.17 in 10.0 mi WSW 3.5 mph - N/A   Clear
6:15 PM 26.6 °F 20.0 °F 1.4 °F 34% 30.17 in 10.0 mi West 5.8 mph - N/A   Partly Cloudy
6:35 PM 24.8 °F 20.5 °F 1.4 °F 36% 30.17 in 10.0 mi WSW 3.5 mph - N/A   Clear
6:55 PM 24.8 °F 19.1 °F 1.4 °F 36% 30.15 in 10.0 mi West 4.6 mph - N/A   Mostly Cloudy
7:15 PM 24.8 °F 19.1 °F 3.2 °F 40% 30.14 in 10.0 mi West 4.6 mph - N/A   Mostly Cloudy
7:35 PM 24.8 °F - 1.4 °F 36% 30.14 in 10.0 mi Calm Calm - N/A   Mostly Cloudy
7:55 PM 24.8 °F 20.5 °F 1.4 °F 36% 30.13 in 10.0 mi WSW 3.5 mph - N/A   Scattered Clouds
8:15 PM 24.8 °F 20.5 °F 1.4 °F 36% 30.13 in 10.0 mi WSW 3.5 mph - N/A   Overcast
8:35 PM 24.8 °F 20.5 °F 1.4 °F 36% 30.12 in 10.0 mi West 3.5 mph - N/A   Mostly Cloudy
8:55 PM 24.8 °F - 1.4 °F 36% 30.12 in 10.0 mi Calm Calm - N/A   Mostly Cloudy
9:15 PM 23.0 °F 18.4 °F 3.2 °F 43% 30.12 in 10.0 mi West 3.5 mph - N/A   Overcast
9:35 PM 23.0 °F 18.4 °F 3.2 °F 43% 30.12 in 10.0 mi West 3.5 mph - N/A   Overcast
9:55 PM 24.8 °F 19.1 °F 3.2 °F 40% 30.12 in 10.0 mi West 4.6 mph - N/A   Overcast
10:15 PM 24.8 °F 20.5 °F 1.4 °F 36% 30.12 in 10.0 mi West 3.5 mph - N/A   Overcast
10:35 PM 23.0 °F 17.0 °F 1.4 °F 39% 30.11 in 10.0 mi WNW 4.6 mph - N/A   Overcast
10:55 PM 23.0 °F 18.4 °F 1.4 °F 39% 30.11 in 10.0 mi WNW 3.5 mph - N/A   Mostly Cloudy
11:15 PM 21.2 °F 14.9 °F 1.4 °F 42% 30.10 in 10.0 mi NNW 4.6 mph - N/A   Overcast
11:35 PM 21.2 °F 13.6 °F 3.2 °F 46% 30.10 in 10.0 mi NW 5.8 mph - N/A   Mostly Cloudy
11:55 PM 21.2 °F 13.6 °F 3.2 °F 46% 30.09 in 10.0 mi NNW 5.8 mph - N/A   Scattered Clouds